Hourly Weather Roundup
Issued by NWS Central Illinois

Home | Current Version | Previous Version | Text Only | Print | Product List | Glossary On
Versions: 1 2 3 4 5 6 7 8 9 10 11 12 13 14 15 16 17 18 19 20 21 22 23 24 25 26 27 28 29 30 31 32 33 34 35 36 37 38 39 40 41 42 43 44 45 46 47 48 49 50
000
NZUS43 KILX 151410
HWRILX

AREA WEATHER ROUNDUP
NATIONAL WEATHER SERVICE, LINCOLN IL
900 AM CDT MON SEP 15 2014


CITY           SKY/WX    TMP DP  RH WIND       PRES   REMARKS
BLOOMINGTON    CLOUDY    55  49  80 N3        30.16S
CHAMPAIGN      CLOUDY    56  52  86 E5        30.16F
DECATUR        CLOUDY    60  51  72 SE3       30.14F
FLORA          PTSUNNY   57  53  85 CALM      30.18S
GALESBURG      CLOUDY    55  52  92 CALM      30.13R
JACKSONVILLE   CLOUDY    61  55  80 S6        30.10S
LACON          LGT RAIN  55  51  89 CALM      30.10F
LAWRENCEVILLE  CLOUDY    58  54  86 CALM      30.19F
LITCHFIELD     CLOUDY    59  52  77 S9        30.14F
$$


CITY           SKY/WX    TMP DP  RH WIND       PRES   REMARKS
LINCOLN        CLOUDY    58  53  83 S5        30.10F
MACOMB         RAIN      56  53  90 SW3       30.12F
MATTOON        CLOUDY    59  50  72 S7        30.16F
MT CARMEL AP   PTSUNNY   61  55  82 CALM      30.18S
OLNEY-NOBLE AP PTSUNNY   55  52  88 CALM      30.19R
PARIS          CLOUDY    57  55  91 CALM      30.18S
PEORIA         LGT RAIN  57  52  83 SE7       30.11S
PONTIAC        CLOUDY    57  55  94 CALM      30.13F
RANTOUL        PTSUNNY   58  49  72 E6        30.15F
ROBINSON       CLOUDY    56  55  96 CALM      30.19F
SPRINGFIELD    CLOUDY    59  54  83 S8        30.10F
TAYLORVILLE    CLOUDY    59  50  72 S10       30.12F
$$

...REGIONAL REPORTS...


CITY           SKY/WX    TMP DP  RH WIND       PRES   REMARKS
CHICAGO O`HARE CLOUDY    57  47  69 S6        30.14S
KANKAKEE       CLOUDY    55  53  90 NW3       30.17R
MOLINE         CLOUDY    56  52  86 E6        30.09F
MOUNT VERNON   PTSUNNY   61  52  72 CALM      30.19S
PITTSFIELD     TSTM      61  55  78 S10       30.09S
QUINCY         CLOUDY    59  55  87 S5        30.07F
ROCKFORD       CLOUDY    54  49  83 S5        30.15S
$$


CITY           SKY/WX    TMP DP  RH WIND       PRES   REMARKS
BURLINGTON     CLOUDY    56  56 100 NE5       30.08F
CEDAR RAPIDS   MOSUNNY   57  55  93 S5        30.09R
DES MOINES     CLOUDY    62  58  86 NE7       30.07F
KIRKSVILLE     CLOUDY    59  57  93 N10       30.10R
OTTUMWA        CLOUDY    57  56  96 NE3       30.08S
ST LOUIS       PTSUNNY   64  53  67 S8        30.12F
$$


CITY           SKY/WX    TMP DP  RH WIND       PRES   REMARKS
TERRE HAUTE    CLOUDY    55  51  86 SE5       30.18F
EVANSVILLE     CLOUDY    60  55  83 CALM      30.20F
INDIANAPOLIS   MOSUNNY   58  49  72 CALM      30.20R
LAFAYETTE      CLOUDY    53  49  86 NW5       30.21R
MADISON        LGT RAIN  53  51  93 N3        30.13F
MILWAUKEE      LGT RAIN  56  49  77 CALM      30.13F
$$




USA.gov is the U.S. government's official web portal to all federal, state and local government web resources and services.